Location: Unspecified
(0.0000°N, 0.0000°E)
Time: 15:35:17
(UTC+00:00)

STARLINK-1577 - Visible Passes

Search period start: 15 June 2025 00:00
Search period end: 25 June 2025 00:00
Orbit: 546 x 548 km, 53.1° (Epoch: 15 June)

Date Brightness Start Highest point End Pass type
(mag) Time Alt. Az. Time Alt. Az. Time Alt. Az.
21 Jun 4.7 19:04:41 10° S 19:07:36 24° SE 19:07:36 24° SE visible
22 Jun 4.0 18:57:51 10° SSW 19:01:43 39° SE 19:05:34 10° NE visible
22 Jun 7.0 20:40:24 10° WNW 20:41:02 10° NW 20:41:40 10° NW visible
23 Jun 3.5 18:51:13 10° SSW 18:55:18 63° ESE 18:59:22 10° NE visible
24 Jun 3.7 18:44:45 10° SW 18:48:52 80° WNW 18:52:59 10° NNE visible
